(°C)
19°
19°
18°
18°
19°
21°
23°
(°C)
19°
19°
18°
18°
19°
21°
23°
JJZ
JJZ
JZ
JZ
JJZ
ZJZ
ZJZ
(km/h)
9-21
9-19
9-19
9-16
7-17
9-18
11-18
(mm)
0
0
0
0
0
0
0
(%)
0
0
0
0
0
0
0

Sluneční výška

/ -14.5°
sun-icon
UV 5
05:11
20:53
Poslední čtvrť (269°)
23:47
13:42

METAR pro 52.53°S 31.02°V (UMGG)

Čas Podmínky Teplota/
Rosný bod
Vítr Viditelnost Počasí Oblaky Tlak Změna Nezpracované
VFR 20°C / 15°C 220º 8kt >10km - Clouds and Visibility OK 1008 No Significant change UMGG 302300Z 22004MPS CAVOK 20/15 Q1008 R28/CLRD// NOSIG
VFR 21°C / 15°C 220º 6kt >10km - Clouds and Visibility OK 1008 No Significant change UMGG 302200Z 22003MPS CAVOK 21/15 Q1008 R28/CLRD// NOSIG
VFR 21°C / 14°C 220º 6kt >10km - Clouds and Visibility OK 1008 No Significant change UMGG 302100Z 22003MPS CAVOK 21/14 Q1008 R28/CLRD// NOSIG
VFR 22°C / 14°C 220º 6kt >10km - Clouds and Visibility OK 1008 No Significant change UMGG 302000Z 22003MPS CAVOK 22/14 Q1008 R28/CLRD// NOSIG
VFR 22°C / 13°C 230º 6kt >10km - Clouds and Visibility OK 1008 No Significant change UMGG 301900Z 23003MPS CAVOK 22/13 Q1008 R28/CLRD// NOSIG
VFR 24°C / 13°C 250º 8kt >10km - Clouds and Visibility OK 1008 No Significant change UMGG 301800Z 25004MPS CAVOK 24/13 Q1008 R28/D NOSIG
VFR 26°C / 12°C 280º 8kt >10km - Clouds and Visibility OK 1008 No Significant change UMGG 301700Z 28004MPS CAVOK 26/12 Q1008 R28/D NOSIG
VFR 27°C / 11°C 280º 10kt >10km - Clouds and Visibility OK 1008 No Significant change UMGG 301630Z 28005MPS CAVOK 27/11 Q1008 R28/CLRD// NOSIG
VFR 27°C / 11°C 290º 12kt Gust 17kt >10km - Clouds and Visibility OK 1008 No Significant change UMGG 301600Z 29006G09MPS CAVOK 27/11 Q1008 R28/CLRD// NOSIG
VFR 29°C / 12°C 280º 12kt Gust 17kt >10km - Clouds and Visibility OK 1008 No Significant change UMGG 301530Z 28006G09MPS CAVOK 29/12 Q1008 R28/CLRD// NOSIG
VFR 29°C / 12°C 300º 12kt Gust 17kt >10km - Clouds and Visibility OK 1008 No Significant change UMGG 301500Z 30006G09MPS CAVOK 29/12 Q1008 R28/D NOSIG
VFR 28°C / 12°C 290º 10kt Gust 16kt >10km - Clouds and Visibility OK 1008 No Significant change UMGG 301430Z 29005G08MPS CAVOK 28/12 Q1008 R28/CLRD// NOSIG
VFR 28°C / 12°C 290º 10kt Gust 16kt >10km - Clouds and Visibility OK 1008 No Significant change UMGG 301400Z 29005G08MPS CAVOK 28/12 Q1008 R28/CLRD// NOSIG
VFR 27°C / 13°C 240º 10kt Gust 16kt >10km - Clouds and Visibility OK 1008 No Significant change UMGG 301330Z 24005G08MPS CAVOK 27/13 Q1008 R28/CLRD// NOSIG
VFR 27°C / 13°C 260º 12kt Gust 17kt >10km - Clouds and Visibility OK 1009 No Significant change UMGG 301300Z 26006G09MPS CAVOK 27/13 Q1009 R28/CLRD// NOSIG
VFR 28°C / 13°C 250º 17kt Gust 25kt >10km - Clouds and Visibility OK 1009 No Significant change UMGG 301230Z 25009G13MPS CAVOK 28/13 Q1009 R28/D NOSIG
VFR 28°C / 13°C 290º 12kt Gust 17kt >10km - Clouds and Visibility OK 1009 No Significant change UMGG 301200Z 29006G09MPS CAVOK 28/13 Q1009 R28/CLRD// NOSIG
VFR 28°C / 14°C 270º 12kt Gust 17kt >10km - Clouds and Visibility OK 1009 No Significant change UMGG 301130Z 27006G09MPS CAVOK 28/14 Q1009 R28/CLRD// NOSIG
VFR 28°C / 14°C 280º 12kt Gust 17kt >10km - Clouds and Visibility OK 1009 No Significant change UMGG 301100Z 28006G09MPS CAVOK 28/14 Q1009 R28/D NOSIG
VFR 27°C / 14°C 270º 12kt Gust 17kt >10km - Scattered Clouds 4600ft 1009 No Significant change UMGG 301030Z 27006G09MPS 9999 SCT046 BKN100 27/14 Q1009 R28/D NOSIG
VFR 27°C / 14°C 280º 14kt Gust 19kt >10km - Broken Clouds 4800ft 1009 No Significant change UMGG 301000Z 28007G10MPS 9999 BKN048 BKN100 27/14 Q1009 R28/D NOSIG
VFR 27°C / 15°C 290º 10kt Gust 16kt >10km - Broken Clouds 4800ft 1009 No Significant change UMGG 300930Z 29005G08MPS 9999 BKN048 BKN100 27/15 Q1009 R28/CLRD// NOSIG
VFR 27°C / 15°C 300º 12kt Gust 17kt >10km - Scattered Clouds 5200ft 1009 No Significant change UMGG 300900Z 30006G09MPS 9999 SCT052 BKN100 27/15 Q1009 R28/CLRD// NOSIG
VFR 25°C / 17°C 300º 12kt >10km - Broken Clouds 3200ft 1009 No Significant change UMGG 300830Z 30006MPS 9999 BKN032 25/17 Q1009 R28/D NOSIG

VFR

20°C / 15°C

[Víc]
Vítr 220º 8kt
Viditelnost >10km
Počasí -
Oblaky Clouds and Visibility OK
Tlak 1008
Změna No Significant change
Nezpracované UMGG 302300Z 22004MPS CAVOK 20/15 Q1008 R28/CLRD// NOSIG

VFR

21°C / 15°C

[Víc]
Vítr 220º 6kt
Viditelnost >10km
Počasí -
Oblaky Clouds and Visibility OK
Tlak 1008
Změna No Significant change
Nezpracované UMGG 302200Z 22003MPS CAVOK 21/15 Q1008 R28/CLRD// NOSIG

VFR

21°C / 14°C

[Víc]
Vítr 220º 6kt
Viditelnost >10km
Počasí -
Oblaky Clouds and Visibility OK
Tlak 1008
Změna No Significant change
Nezpracované UMGG 302100Z 22003MPS CAVOK 21/14 Q1008 R28/CLRD// NOSIG

VFR

22°C / 14°C

[Víc]
Vítr 220º 6kt
Viditelnost >10km
Počasí -
Oblaky Clouds and Visibility OK
Tlak 1008
Změna No Significant change
Nezpracované UMGG 302000Z 22003MPS CAVOK 22/14 Q1008 R28/CLRD// NOSIG

VFR

22°C / 13°C

[Víc]
Vítr 230º 6kt
Viditelnost >10km
Počasí -
Oblaky Clouds and Visibility OK
Tlak 1008
Změna No Significant change
Nezpracované UMGG 301900Z 23003MPS CAVOK 22/13 Q1008 R28/CLRD// NOSIG

VFR

24°C / 13°C

[Víc]
Vítr 250º 8kt
Viditelnost >10km
Počasí -
Oblaky Clouds and Visibility OK
Tlak 1008
Změna No Significant change
Nezpracované UMGG 301800Z 25004MPS CAVOK 24/13 Q1008 R28/D NOSIG

VFR

26°C / 12°C

[Víc]
Vítr 280º 8kt
Viditelnost >10km
Počasí -
Oblaky Clouds and Visibility OK
Tlak 1008
Změna No Significant change
Nezpracované UMGG 301700Z 28004MPS CAVOK 26/12 Q1008 R28/D NOSIG

VFR

27°C / 11°C

[Víc]
Vítr 280º 10kt
Viditelnost >10km
Počasí -
Oblaky Clouds and Visibility OK
Tlak 1008
Změna No Significant change
Nezpracované UMGG 301630Z 28005MPS CAVOK 27/11 Q1008 R28/CLRD// NOSIG

VFR

27°C / 11°C

[Víc]
Vítr 290º 12kt Gust 17kt
Viditelnost >10km
Počasí -
Oblaky Clouds and Visibility OK
Tlak 1008
Změna No Significant change
Nezpracované UMGG 301600Z 29006G09MPS CAVOK 27/11 Q1008 R28/CLRD// NOSIG

VFR

29°C / 12°C

[Víc]
Vítr 280º 12kt Gust 17kt
Viditelnost >10km
Počasí -
Oblaky Clouds and Visibility OK
Tlak 1008
Změna No Significant change
Nezpracované UMGG 301530Z 28006G09MPS CAVOK 29/12 Q1008 R28/CLRD// NOSIG

VFR

29°C / 12°C

[Víc]
Vítr 300º 12kt Gust 17kt
Viditelnost >10km
Počasí -
Oblaky Clouds and Visibility OK
Tlak 1008
Změna No Significant change
Nezpracované UMGG 301500Z 30006G09MPS CAVOK 29/12 Q1008 R28/D NOSIG

VFR

28°C / 12°C

[Víc]
Vítr 290º 10kt Gust 16kt
Viditelnost >10km
Počasí -
Oblaky Clouds and Visibility OK
Tlak 1008
Změna No Significant change
Nezpracované UMGG 301430Z 29005G08MPS CAVOK 28/12 Q1008 R28/CLRD// NOSIG

VFR

28°C / 12°C

[Víc]
Vítr 290º 10kt Gust 16kt
Viditelnost >10km
Počasí -
Oblaky Clouds and Visibility OK
Tlak 1008
Změna No Significant change
Nezpracované UMGG 301400Z 29005G08MPS CAVOK 28/12 Q1008 R28/CLRD// NOSIG

VFR

27°C / 13°C

[Víc]
Vítr 240º 10kt Gust 16kt
Viditelnost >10km
Počasí -
Oblaky Clouds and Visibility OK
Tlak 1008
Změna No Significant change
Nezpracované UMGG 301330Z 24005G08MPS CAVOK 27/13 Q1008 R28/CLRD// NOSIG

VFR

27°C / 13°C

[Víc]
Vítr 260º 12kt Gust 17kt
Viditelnost >10km
Počasí -
Oblaky Clouds and Visibility OK
Tlak 1009
Změna No Significant change
Nezpracované UMGG 301300Z 26006G09MPS CAVOK 27/13 Q1009 R28/CLRD// NOSIG

VFR

28°C / 13°C

[Víc]
Vítr 250º 17kt Gust 25kt
Viditelnost >10km
Počasí -
Oblaky Clouds and Visibility OK
Tlak 1009
Změna No Significant change
Nezpracované UMGG 301230Z 25009G13MPS CAVOK 28/13 Q1009 R28/D NOSIG

VFR

28°C / 13°C

[Víc]
Vítr 290º 12kt Gust 17kt
Viditelnost >10km
Počasí -
Oblaky Clouds and Visibility OK
Tlak 1009
Změna No Significant change
Nezpracované UMGG 301200Z 29006G09MPS CAVOK 28/13 Q1009 R28/CLRD// NOSIG

VFR

28°C / 14°C

[Víc]
Vítr 270º 12kt Gust 17kt
Viditelnost >10km
Počasí -
Oblaky Clouds and Visibility OK
Tlak 1009
Změna No Significant change
Nezpracované UMGG 301130Z 27006G09MPS CAVOK 28/14 Q1009 R28/CLRD// NOSIG

VFR

28°C / 14°C

[Víc]
Vítr 280º 12kt Gust 17kt
Viditelnost >10km
Počasí -
Oblaky Clouds and Visibility OK
Tlak 1009
Změna No Significant change
Nezpracované UMGG 301100Z 28006G09MPS CAVOK 28/14 Q1009 R28/D NOSIG

VFR

27°C / 14°C

[Víc]
Vítr 270º 12kt Gust 17kt
Viditelnost >10km
Počasí -
Oblaky Scattered Clouds 4600ft
Tlak 1009
Změna No Significant change
Nezpracované UMGG 301030Z 27006G09MPS 9999 SCT046 BKN100 27/14 Q1009 R28/D NOSIG

VFR

27°C / 14°C

[Víc]
Vítr 280º 14kt Gust 19kt
Viditelnost >10km
Počasí -
Oblaky Broken Clouds 4800ft
Tlak 1009
Změna No Significant change
Nezpracované UMGG 301000Z 28007G10MPS 9999 BKN048 BKN100 27/14 Q1009 R28/D NOSIG

VFR

27°C / 15°C

[Víc]
Vítr 290º 10kt Gust 16kt
Viditelnost >10km
Počasí -
Oblaky Broken Clouds 4800ft
Tlak 1009
Změna No Significant change
Nezpracované UMGG 300930Z 29005G08MPS 9999 BKN048 BKN100 27/15 Q1009 R28/CLRD// NOSIG

VFR

27°C / 15°C

[Víc]
Vítr 300º 12kt Gust 17kt
Viditelnost >10km
Počasí -
Oblaky Scattered Clouds 5200ft
Tlak 1009
Změna No Significant change
Nezpracované UMGG 300900Z 30006G09MPS 9999 SCT052 BKN100 27/15 Q1009 R28/CLRD// NOSIG

VFR

25°C / 17°C

[Víc]
Vítr 300º 12kt
Viditelnost >10km
Počasí -
Oblaky Broken Clouds 3200ft
Tlak 1009
Změna No Significant change
Nezpracované UMGG 300830Z 30006MPS 9999 BKN032 25/17 Q1009 R28/D NOSIG

TAF pro 52.53°S 31.02°V (UMGG)

From till


Maximum Temperature 29ºC on . Minimum Temperature 17ºC on .
From till Wind 240º 12kt. Visibility 10km or more. Scattered Clouds 2500ft.
Temporarly from till Visibility 1200m. Mist . Broken Clouds 300ft.
Becoming from till Wind 270º 12kt. Gust 21kt. Visibility 10km or more. Scattered Clouds 2500ft.
Temporarly from till Wind 280º 16kt. Gust 25kt.
With 40% probability, Temporarly from till Visibility 3000m. Light Thunderstorm Rain . Broken Clouds 2500ft.

Nezpracované: TAF UMGG 302306Z 3100/3124 24006MPS 9999 SCT025 TX29/3112Z TN17/3102Z TEMPO 3100/3104 1200 BR BKN003 BECMG 3104/3106 27006G11MPS TEMPO 3108/3115 28008G13MPS PROB40 TEMPO 3110/3120 3000 -TSRA BKN025CB

Aktuální snímky ze satelitu a srážky pro 52.53°S 31.02°V

Značka polohy je umístěna na 52.53°S 31.02°V. [Víc]

Satelitní snímek v reálném čase kombinuje viditelné světlo během dne s infračerveným zářením během noci. V noci není obraz tmavý, protože infračervené záření dokáže detekovat teplotní rozdíly. Nízká oblačnost a mlha se bohužel těžko odlišují od pozemních teplot, a proto mohou být během noci téměř neviditelné. Satelitní snímky z Meteosatu pro Evropu jsou aktualizovány v reálném čase každých 5 minut. Snímky z GOES-16/GOES-17 (Severní a Jižní Amerika) a Himawari (Asie) jsou aktualizovány) každých 10 minut.

Copyright 2021 EUMETSAT / meteoblue. / Copyright 2021 meteoblue

Radar a krátkodobá předpověď srážek pro 52.53°S 31.02°V

Mrholení
Slabé
Mírná
Silné
Velmi silné
Kroupy

Značka lokality je umístněna na 52.53°S 31.02°V. Tato animace ukazuje srážky zaznamenané radarem za poslední hodinu a také 1h předpověď. Mrholení nebo slabé sněžení mohou být pro radar neviditelné. Intenzita srážek používá barevní kód od světle modré po tmavě fialovou.